Flag Weather past 2 weeks in Da Nang, Vietnam

Now
75 °F

Passing clouds.


Feels Like: 75 °F
Forecast: 75 / 85 °F
Wind: 1 mph from West

Location: Da Nang Airport

Current Time: Nov 24, 2014 at 2:20:23 AM

Latest Report: Nov 24, 2014 at 2:00 AM


Visibility: 4 mi

Pressure: 29.89 "Hg

Humidity: 89%

Dew point: 72 °F

Location of Da NangLocation

Historic Weather in Da Nang — Graph

°F

Da Nang temperature yesterday

Maximum temperature yesterday: 84 °F (at 12:00 PM)
Minimum temperature yesterday: 72 °F (at 2:30 AM)
Average temperature yesterday: 78 °F

Past Weeks' High & Low Weather Summary

 TemperatureHumidityPressure
High88 °F (Nov 11, 10:30 AM)100% (Nov 12, 12:00 AM)30.12 "Hg (Nov 12, 12:00 AM)
Low72 °F (Nov 21, 5:00 AM)55% (Nov 18, 10:30 AM)29.89 "Hg (Nov 10, 2:00 PM)
Average78 °F80%29.98 "Hg
* Reported Nov 9 1:00 AM — Nov 24 1:00 AM, Da Nang, Weather by CustomWeather, © 2014

Note: Actual official high and low records may vary slightly from our data, if they occured in-between our weather recording intervals... More about our weather records

Advertising

Da Nang weather history for previous 24 hours

 ConditionsComfort  
Time TempWeatherWind HumidityBarometerVisibility
1:00 AM
Nov 24
75 °FPassing clouds.1 mph89%29.92 "Hg4 mi
12:30 AM75 °FPassing clouds.No wind94%29.92 "Hg4 mi
12:00 AM75 °FPassing clouds.2 mph94%29.95 "Hg4 mi
11:30 PM
Nov 23
75 °FPassing clouds.2 mph94%29.95 "Hg4 mi
11:00 PM75 °FPassing clouds.2 mph94%29.95 "Hg4 mi
10:30 PM75 °FLight rain. Passing clouds.1 mph94%29.95 "Hg4 mi
10:00 PM75 °FPassing clouds.1 mph94%29.95 "Hg4 mi
9:30 PM75 °FLight rain. Partly cloudy.7 mph94%29.95 "Hg4 mi
9:00 PM77 °FPassing clouds.5 mph89%29.95 "Hg4 mi
8:30 PM79 °FLight rain. Passing clouds.6 mph84%29.95 "Hg4 mi
8:00 PM81 °FPassing clouds.8 mph74%29.95 "Hg4 mi
7:30 PM79 °FPassing clouds.9 mph79%29.92 "Hg4 mi
7:00 PM79 °FPassing clouds.9 mph79%29.92 "Hg4 mi
6:30 PM79 °FPassing clouds.10 mph79%29.92 "Hg5 mi
6:00 PM79 °FPassing clouds.10 mph79%29.92 "Hg5 mi
5:30 PM79 °FPassing clouds.12 mph79%29.89 "Hg5 mi
5:00 PM81 °FPartly sunny.12 mph79%29.89 "Hg5 mi
4:30 PM81 °FPartly sunny.10 mph74%29.89 "Hg5 mi
4:00 PM81 °FScattered clouds.14 mph74%29.89 "Hg5 mi
3:30 PM81 °FScattered clouds.15 mph74%29.89 "Hg5 mi
3:00 PM82 °FScattered clouds.14 mph70%29.89 "Hg5 mi
2:30 PM82 °FScattered clouds.15 mph74%29.89 "Hg5 mi
2:00 PM82 °FScattered clouds.14 mph74%29.89 "Hg5 mi
1:30 PM82 °FScattered clouds.15 mph74%29.89 "Hg5 mi
1:00 PM84 °FScattered clouds.15 mph70%29.92 "Hg5 mi
12:30 PM82 °FScattered clouds.14 mph74%29.92 "Hg5 mi
12:00 PM84 °FScattered clouds.13 mph66%29.95 "Hg5 mi
11:30 AM82 °FScattered clouds.13 mph70%29.95 "Hg5 mi
11:00 AM82 °FScattered clouds.13 mph70%29.98 "Hg5 mi
10:30 AM82 °FScattered clouds.10 mph70%29.98 "Hg5 mi
9:30 AM81 °FScattered clouds.7 mph74%29.98 "Hg4 mi
9:00 AM82 °FScattered clouds.3 mph70%29.98 "Hg4 mi
8:30 AM82 °FScattered clouds.2 mph70%29.98 "Hg4 mi
8:00 AM79 °FScattered clouds.No wind79%29.98 "Hg4 mi
7:30 AM77 °FScattered clouds.No wind83%29.98 "Hg4 mi
7:00 AM77 °FScattered clouds.No wind79%29.95 "Hg4 mi
6:30 AM73 °FFog.1 mph94%29.95 "Hg3 mi
6:00 AM73 °FFog.1 mph94%29.95 "Hg3 mi
5:30 AM73 °FPartly cloudy.2 mph94%29.92 "Hg4 mi
5:00 AM73 °FPartly cloudy.No wind94%29.92 "Hg4 mi
4:30 AM73 °FPartly cloudy.1 mph94%29.92 "Hg4 mi
4:00 AM73 °FPartly cloudy.1 mph94%29.92 "Hg4 mi
3:30 AM73 °FPartly cloudy.1 mph94%29.92 "Hg4 mi
3:00 AM72 °FPartly cloudy.2 mph94%29.92 "Hg4 mi
2:30 AM72 °FLight rain. Partly cloudy.3 mph94%29.92 "Hg4 mi
2:00 AM73 °FPartly cloudy.1 mph89%29.92 "Hg4 mi
Weather by CustomWeather, © 2014

See weather overviewHow to use our weather pages